(117639) = 2005 EE133

Discovered at Catalina on 2005-03-09 by CSS.

Orbit

Orbit type: Main Belt

Note: WebGL enabled browser required.

epoch2023-09-13.0
epoch JD2460200.5
perihelion date2021-06-19.68178
perihelion JD2459385.18178
argument of perihelion (°)71.35906
ascending node (°)112.78448
inclination (°)16.75262
eccentricity0.0408630
perihelion distance (AU)2.9252871
Tisserand w.r.t. Jupiter3.2
ΔV w.r.t. Earth (km/sec)11.9
semimajor axis (AU)3.0499158
mean anomaly (°)150.86873
mean daily motion (°/day)0.18504280
aphelion distance (AU)3.175
period (years)5.33
P-vector [x]-0.96030893
P-vector [y]-0.16064459
P-vector [z]0.22803525
Q-vector [x]0.08476271
Q-vector [y]-0.94691182
Q-vector [z]-0.31011817
absolute magnitude14.79
phase slope0.15
uncertainty0
referenceMPEC 2024-A55
observations used984
oppositions19
arc length (days)9506
first opposition used1997
last opposition used2023
residual rms (arc-secs)0.72
perturbers coarse indicatorM-v
perturbers precise indicator003Ek
first observation date used1997-11-01.0
last observation date used2023-11-11.0
computer nameMPCLINUX
JD of orbit computation2456670.715305
perihelion JD uncertainty (days)4.9418E-04
argument of perihelion uncertainty (°)9.0591E-05
ascending node uncertainty (°)2.7298E-05
inclination uncertainty (°)7.2081E-06
eccentricity uncertainty 7.5397E-08
perihelion distance uncertainty (AU)2.1741E-07
Minimum Orbit Intersection Distances (in AU)
for orbit epoch: 2460200.5, reference: E2024-A55
Mercury2.51863
Venus2.22562
Earth1.97696
Mars1.31708
Jupiter1.96604
Saturn6.01839
Uranus15.573
Neptune26.7942

Observations

1002 total observations over interval: 1997 11 01.47023 – 2023 11 11.140271
These data are available for download (format description).

Date (UT) J2000 RA J2000 Dec Magn Location Ref
1997 11 01.47023 01 54 29.80 -13 41 02.2   568 – Maunakea MPS 130270
1997 11 01.48964 01 54 28.82 -13 41 03.4   568 – Maunakea MPS 130270
1997 11 01.51341 01 54 27.78 -13 41 05.1   568 – Maunakea MPS 130270
2000 03 27.44614 13 18 05.46 +18 13 56.5 18.9 R 699 – Lowell Observatory-LONEOS MPS 130270
2000 03 27.46678 13 18 04.66 +18 14 04.9   699 – Lowell Observatory-LONEOS MPS 130270
2000 03 27.48743 13 18 03.68 +18 14 14.5   699 – Lowell Observatory-LONEOS MPS 130270
2000 03 27.50807 13 18 02.70 +18 14 22.2   699 – Lowell Observatory-LONEOS MPS 130270
2000 04 30.14224 12 54 18.18 +19 52 38.9 19.0 R 699 – Lowell Observatory-LONEOS MPS 130270
2000 04 30.16124 12 54 17.48 +19 52 38.3   699 – Lowell Observatory-LONEOS MPS 130270
2000 04 30.18025 12 54 16.76 +19 52 36.9   699 – Lowell Observatory-LONEOS MPS 130270
2000 04 30.19921 12 54 16.03 +19 52 35.6   699 – Lowell Observatory-LONEOS MPS 130270
2000 06 02.20995 12 46 51.86 +17 15 42.2 19.1 R 699 – Lowell Observatory-LONEOS MPS 130270
2000 06 02.22560 12 46 52.07 +17 15 36.1   699 – Lowell Observatory-LONEOS MPS 130270
2000 06 02.23746 12 46 52.04 +17 15 29.6   699 – Lowell Observatory-LONEOS MPS 130270
2000 06 02.24926 12 46 52.13 +17 15 23.6   699 – Lowell Observatory-LONEOS MPS 130270
2002 09 10.46837 00 38 30.98 -19 31 31.9 19.8   644 – Palomar Mountain/NEAT MPS 130270
2002 09 10.48229 00 38 30.47 -19 31 38.6 19.9   644 – Palomar Mountain/NEAT MPS 130270
2002 09 10.49273 00 38 30.09 -19 31 43.5 20.1   644 – Palomar Mountain/NEAT MPS 130270
2002 09 29.38587 00 25 11.87 -21 37 57.0 20.5   608 – Haleakala-AMOS MPS 130270
2002 09 29.39681 00 25 11.41 -21 38 00.6 20.2   608 – Haleakala-AMOS MPS 130270
2002 09 29.40769 00 25 10.89 -21 38 03.0 20.4   608 – Haleakala-AMOS MPS 130270
2002 10 07.26901 00 19 23.01 -22 11 21.3 19.9   644 – Palomar Mountain/NEAT MPS 130270
2002 10 07.29080 00 19 22.05 -22 11 26.2 19.8   644 – Palomar Mountain/NEAT MPS 130270
2002 10 07.31615 00 19 20.91 -22 11 30.9 19.6   644 – Palomar Mountain/NEAT MPS 130270
2003 11 19.39203 05 25 16.11 +07 44 33.0 20.1   644 – Palomar Mountain/NEAT MPS 130270
2003 11 19.41679 05 25 15.03 +07 44 33.6 19.6   644 – Palomar Mountain/NEAT MPS 130270
2003 11 19.43740 05 25 14.15 +07 44 33.8 19.5   644 – Palomar Mountain/NEAT MPS 130270
2003 11 24.29334 05 21 40.30 +07 46 54.3 19.3   644 – Palomar Mountain/NEAT MPS 130270
2003 11 24.36062 05 21 37.09 +07 46 57.2 19.4   644 – Palomar Mountain/NEAT MPS 130270
2003 11 24.43462 05 21 33.58 +07 47 00.6 19.7   644 – Palomar Mountain/NEAT MPS 130270
2003 11 30.26909 05 16 50.45 +07 53 11.0 19.1   704 – Lincoln Laboratory ETS, New Mexico MPS 130270
2003 11 30.29462 05 16 49.12 +07 53 12.1 19.5   704 – Lincoln Laboratory ETS, New Mexico MPS 130270
2003 11 30.30745 05 16 48.49 +07 53 14.2 19.2   704 – Lincoln Laboratory ETS, New Mexico MPS 130270
2003 11 30.32049 05 16 47.85 +07 53 13.9 19.2   704 – Lincoln Laboratory ETS, New Mexico MPS 130270
2003 12 20.26796 04 59 20.25 +08 43 00.1 19.7   704 – Lincoln Laboratory ETS, New Mexico MPS 130270
2003 12 20.29420 04 59 18.91 +08 43 06.4 19.6   704 – Lincoln Laboratory ETS, New Mexico MPS 130270
2003 12 20.30744 04 59 18.14 +08 43 09.4 20.0   704 – Lincoln Laboratory ETS, New Mexico MPS 130270
2004 01 23.20869 04 39 38.83 +11 34 06.7 19.4 R 699 – Lowell Observatory-LONEOS MPS 130270
2004 01 23.22204 04 39 38.69 +11 34 11.4   699 – Lowell Observatory-LONEOS MPS 130270
2004 01 23.23540 04 39 38.53 +11 34 17.0   699 – Lowell Observatory-LONEOS MPS 130270
2004 01 23.24880 04 39 38.21 +11 34 21.7   699 – Lowell Observatory-LONEOS MPS 130270
2005 02 01.42295 11 26 18.78 +20 52 16.0 19.4 R 703 – Catalina Sky Survey MPS 130270
2005 02 01.43153 11 26 18.62 +20 52 20.7 19.2 R 703 – Catalina Sky Survey MPS 130270
2005 02 01.44005 11 26 18.48 +20 52 25.6 19.4 R 703 – Catalina Sky Survey MPS 130270
2005 02 01.44857 11 26 18.26 +20 52 31.2 18.9 R 703 – Catalina Sky Survey MPS 130270
2005 03 01.32007 11 10 04.64 +25 20 09.9 18.2 R 703 – Catalina Sky Survey MPS 130270
2005 03 01.32812 11 10 04.20 +25 20 15.0 18.1 R 703 – Catalina Sky Survey MPS 130270
2005 03 01.33620 11 10 03.80 +25 20 17.6 18.1 R 703 – Catalina Sky Survey MPS 130270
2005 03 01.34432 11 10 03.41 +25 20 22.7 18.3 R 703 – Catalina Sky Survey MPS 130270
2005 03 09.28603 11 03 58.50 +26 20 27.5 18.5 R 703 – Catalina Sky Survey MPS 129251
2005 03 09.29580 11 03 58.03 +26 20 31.8 18.5 R 703 – Catalina Sky Survey MPS 129251
2005 03 09.30564 11 03 57.59 +26 20 35.6 18.7 R 703 – Catalina Sky Survey MPS 129251
2005 03 09.31549 11 03 57.11 +26 20 39.4 18.7 R 703 – Catalina Sky Survey MPS 129251
2005 03 11.27872 11 02 27.45 +26 33 30.1 18.6 R 699 – Lowell Observatory-LONEOS MPS 129251
2005 03 11.29498 11 02 26.62 +26 33 35.9   699 – Lowell Observatory-LONEOS MPS 129251
2005 03 11.31124 11 02 25.90 +26 33 42.0   699 – Lowell Observatory-LONEOS MPS 129251
2005 03 11.32753 11 02 25.07 +26 33 48.0   699 – Lowell Observatory-LONEOS MPS 129251
2005 04 01.21287 10 48 56.33 +27 52 48.0 18.7 R 703 – Catalina Sky Survey MPS 130270
2005 04 01.22094 10 48 56.08 +27 52 48.9 18.0 R 703 – Catalina Sky Survey MPS 130270
2005 04 01.22904 10 48 55.80 +27 52 49.8 18.4 R 703 – Catalina Sky Survey MPS 130270
2005 04 01.23713 10 48 55.55 +27 52 49.8 18.6 R 703 – Catalina Sky Survey MPS 130270
2006 06 18.33094 16 45 28.26 -07 03 00.0 18.8 R 644 – Palomar Mountain/NEAT MPS 174450
2006 06 18.35217 16 45 27.22 -07 03 05.3 18.5 R 644 – Palomar Mountain/NEAT MPS 174450
2006 06 18.37771 16 45 26.00 -07 03 11.4 18.6 R 644 – Palomar Mountain/NEAT MPS 174450
2007 09 20.61327 22 26 37.32 -27 39 13.3 19.7 V E12 – Siding Spring Survey MPS 217595
2007 09 20.62208 22 26 37.06 -27 39 15.3 20.0 V E12 – Siding Spring Survey MPS 217595
2007 09 20.63091 22 26 36.63 -27 39 17.8 19.7 V E12 – Siding Spring Survey MPS 217595
2007 09 20.63974 22 26 36.24 -27 39 18.9 20.1 V E12 – Siding Spring Survey MPS 217595
2008 10 28.30766 03 48 45.75 -02 11 27.4 19.9 V 703 – Catalina Sky Survey MPS 262743
2008 10 28.31560 03 48 45.43 -02 11 28.9 19.4 V 703 – Catalina Sky Survey MPS 262743
2008 10 28.32341 03 48 45.03 -02 11 30.7 19.3 V 703 – Catalina Sky Survey MPS 262743
2008 10 28.33140 03 48 44.78 -02 11 32.2 19.4 V 703 – Catalina Sky Survey MPS 262743
2008 11 03.32825 03 44 22.27 -02 28 59.6 19.2 V 703 – Catalina Sky Survey MPS 264332
2008 11 03.33363 03 44 21.91 -02 28 58.7 19.0 V 703 – Catalina Sky Survey MPS 264332
2008 11 03.33897 03 44 21.69 -02 29 00.6 19.1 V 703 – Catalina Sky Survey MPS 264332
2008 11 03.34429 03 44 21.48 -02 29 01.9 19.2 V 703 – Catalina Sky Survey MPS 264332
2008 11 19.23314 03 31 22.04 -02 50 29.0 19.0 V 703 – Catalina Sky Survey MPS 266103
2008 11 19.24214 03 31 21.57 -02 50 28.5 18.9 V 703 – Catalina Sky Survey MPS 266103
2008 11 19.25096 03 31 21.10 -02 50 29.7 18.6 V 703 – Catalina Sky Survey MPS 266103
2008 12 01.28821 03 21 40.17 -02 38 04.7 19.4 V 703 – Catalina Sky Survey MPS 268524
2008 12 01.29610 03 21 39.92 -02 38 03.8 19.4 V 703 – Catalina Sky Survey MPS 268524
2008 12 01.30392 03 21 39.52 -02 38 01.6 19.3 V 703 – Catalina Sky Survey MPS 268524
2008 12 01.31169 03 21 39.16 -02 38 02.1 19.3 V 703 – Catalina Sky Survey MPS 268524
2008 12 06.25021 03 18 05.63 -02 25 21.7   291 – LPL/Spacewatch II MPS 269021
2008 12 06.26417 03 18 05.03 -02 25 19.3   291 – LPL/Spacewatch II MPS 269021
2008 12 06.27770 03 18 04.45 -02 25 16.9   291 – LPL/Spacewatch II MPS 269021
2008 12 29.16738 03 07 05.77 -00 36 17.7 19.3 V 703 – Catalina Sky Survey MPS 271444
2008 12 29.17464 03 07 05.48 -00 36 14.7 19.7 V 703 – Catalina Sky Survey MPS 271444
2008 12 29.18173 03 07 05.44 -00 36 11.5 18.9 V 703 – Catalina Sky Survey MPS 271444
2008 12 29.18890 03 07 05.30 -00 36 09.5 19.5 V 703 – Catalina Sky Survey MPS 271444
2009 10 23.45854 08 53 37.75 +17 14 22.4 20.5 V G96 – Mt. Lemmon Survey MPS 300263
2009 10 23.46407 08 53 38.07 +17 14 22.0 20.4 V G96 – Mt. Lemmon Survey MPS 300263
2009 10 23.46968 08 53 38.40 +17 14 22.2 20.3 V G96 – Mt. Lemmon Survey MPS 300263
2009 10 23.47544 08 53 38.72 +17 14 21.4 20.2 V G96 – Mt. Lemmon Survey MPS 300263
2009 11 21.47123 09 16 06.27 +17 29 29.5 20.0 V G96 – Mt. Lemmon Survey MPS 306254
